EW1732 Weather Reports


time (UTC)temp
C
wind
direction
speed
KPH
gust
KPH
rain 1hr
cm
rain 24hr
cm
rain mn
cm
humidity
%
barometer
mb
20260510225727 17 225 0.0 0.0 0.00 0.00 0.00 77 1013.7
20260510223525 18 248 0.0 0.0 0.00 0.00 0.00 75 1013.5
20260510222535 18 250 0.0 0.0 0.00 0.00 0.00 75 1013.3
20260510221543 17 266 0.0 0.0 0.00 0.03 0.00 76 1013.4
20260510220527 17 143 0.0 0.0 0.00 0.08 0.00 76 1013.5
20260510215457 17 202 0.0 0.0 0.00 0.18 0.00 76 1013.4
20260510214451 17 271 0.0 3.2 0.00 0.25 0.00 76 1013.3
20260510212346 18 304 0.0 0.0 0.00 0.41 0.00 75 1013.1
20260510211332 18 312 1.6 6.4 0.00 0.46 0.00 73 1012.9
20260510210300 20 315 0.0 1.6 0.00 0.48 0.00 70 1012.8
20260510205245 20 169 0.0 3.2 0.00 0.51 0.00 68 1012.5
20260510204309 20 57 0.0 3.2 0.00 0.53 0.00 72 1012.4
20260510203249 20 97 0.0 1.6 0.00 0.53 0.00 71 1012.5
20260510202239 21 321 0.0 0.0 0.00 0.58 0.00 71 1012.5
20260510200118 21 108 0.0 1.6 0.00 0.58 0.00 69 1012.5
20260510195113 21 135 0.0 4.8 0.00 0.58 0.00 71 1012.4
20260510194046 21 96 0.0 4.8 0.00 0.61 0.00 70 1012.6
20260510193023 20 146 0.0 3.2 0.00 0.64 0.00 74 1012.6
20260510192047 20 127 0.0 3.2 0.00 0.69 0.00 75 1012.7
20260510191052 20 119 0.0 0.0 0.00 0.79 0.00 76 1012.8
20260510184925 19 311 0.0 4.8 0.00 0.84 0.00 74 1013.0
20260510183934 20 138 0.0 0.0 0.00 0.89 0.00 73 1012.9
20260510182955 20 122 0.0 0.0 0.00 0.89 0.00 74 1012.9
20260510181949 20 328 0.0 0.0 0.00 0.89 0.00 72 1012.8
20260510180953 20 104 0.0 0.0 0.00 0.89 0.00 73 1012.9
20260510175929 20 113 0.0 1.6 0.00 0.89 0.00 71 1012.8
20260510174859 21 53 0.0 0.0 0.00 0.89 0.00 72 1012.9
20260510173902 20 129 0.0 3.2 0.00 0.89 0.00 71 1012.8
20260510172837 20 30 0.0 3.2 0.00 0.89 0.00 71 1013.0
20260510171850 20 250 0.0 0.0 0.00 0.89 0.00 73 1013.0
20260510170816 20 26 0.0 3.2 0.00 0.89 0.00 72 1013.0
20260510165802 20 198 0.0 0.0 0.00 0.89 0.00 76 1012.8
20260510164820 20 153 0.0 3.2 0.00 0.89 0.00 74 1012.8
20260510163812 20 309 0.0 0.0 0.00 0.89 0.00 76 1013.0
20260510162826 19 128 0.0 0.0 0.00 0.89 0.00 76 1013.3
20260510161827 18 55 0.0 1.6 0.00 0.89 0.00 77 1013.3
20260510160826 18 43 0.0 4.8 0.00 0.89 0.00 80 1013.3
20260510155752 18 67 0.0 4.8 0.00 0.89 0.00 81 1013.2
20260510154740 17 135 0.0 0.0 0.00 0.89 0.00 83 1013.1
20260510153746 17 305 0.0 0.0 0.00 0.89 0.00 86 1013.2
20260510152712 17 136 0.0 4.8 0.00 0.89 0.00 85 1013.4
20260510151643 16 133 0.0 3.2 0.00 0.89 0.00 88 1013.6
20260510150623 16 352 0.0 0.0 0.00 0.89 0.00 89 1013.5
20260510144521 15 139 0.0 0.0 0.00 0.89 0.00 93 1013.6
20260510142355 14 325 0.0 0.0 0.00 0.89 0.00 96 1013.2
20260510141340 13 112 0.0 1.6 0.00 0.89 0.00 97 1013.3
20260510140341 12 302 0.0 1.6 0.00 0.89 0.00 98 1013.4
20260510135310 12 311 0.0 0.0 0.00 0.89 0.00 98 1013.4
20260510134259 12 253 0.0 0.0 0.00 0.89 0.00 98 1013.4
20260510133254 12 137 0.0 0.0 0.00 0.89 0.00 98 1013.5
20260510131056 11 135 0.0 0.0 0.00 0.91 0.00 98 1013.2
20260510130105 11 135 0.0 0.0 0.00 0.91 0.00 98 1013.1
20260510125040 11 135 0.0 0.0 0.00 0.91 0.00 98 1013.2
20260510124015 11 135 0.0 0.0 0.00 0.91 0.00 98 1013.1
20260510123011 11 135 0.0 0.0 0.00 0.91 0.00 98 1013.0
20260510114643 11 94 0.0 0.0 0.00 0.91 0.00 98 1012.6
20260510113614 10 94 0.0 0.0 0.00 0.91 0.00 98 1012.6
20260510110410 10 94 0.0 0.0 0.00 0.94 0.00 98 1012.2
20260510103142 10 94 0.0 0.0 0.00 0.94 0.00 98 1012.1
20260510102135 10 129 0.0 0.0 0.00 0.94 0.00 98 1011.9
20260510100043 10 129 0.0 0.0 0.00 0.94 0.00 98 1012.0
20260510095026 10 129 0.0 0.0 0.00 0.94 0.00 98 1011.9
20260510094012 10 128 0.0 0.0 0.00 0.94 0.00 98 1011.9
20260510093005 10 139 0.0 0.0 0.00 0.94 0.00 98 1012.0
20260510092005 10 143 0.0 0.0 0.00 0.94 0.00 98 1012.2
20260510090953 10 143 0.0 0.0 0.00 0.94 0.00 98 1012.1
20260510085936 10 143 0.0 0.0 0.00 0.94 0.00 97 1012.3
20260510084951 10 143 0.0 0.0 0.00 0.94 0.00 98 1012.4
20260510084002 10 115 0.0 0.0 0.00 0.94 0.00 98 1012.4
20260510080640 10 244 0.0 1.6 0.00 0.94 0.00 98 1012.5
20260510075640 10 226 0.0 0.0 0.00 0.94 0.00 98 1012.3
20260510074613 10 224 0.0 0.0 0.00 0.99 0.00 98 1012.1
20260510073553 10 210 0.0 0.0 0.00 0.99 0.00 98 1011.7
20260510072536 10 211 0.0 0.0 0.00 0.99 0.00 98 1011.7
20260510071601 10 211 0.0 0.0 0.00 0.99 0.00 98 1011.8
20260510070547 10 211 0.0 0.0 0.00 0.99 0.00 98 1011.8
20260510065524 10 211 0.0 0.0 0.00 0.99 0.00 97 1011.8
20260510064514 10 210 0.0 0.0 0.00 0.99 0.00 97 1012.0
20260510063513 10 210 0.0 0.0 0.00 0.99 0.00 97 1012.1
20260510062508 10 210 0.0 0.0 0.00 0.99 0.00 97 1012.1
20260510061506 10 211 0.0 0.0 0.00 0.99 0.00 97 1012.0
20260510060522 10 210 0.0 0.0 0.00 0.99 0.00 97 1011.9
20260510055452 10 148 0.0 0.0 0.00 0.99 0.00 97 1011.5
20260510054513 10 148 0.0 0.0 0.00 0.99 0.00 97 1011.4
20260510053511 10 148 0.0 0.0 0.00 0.99 0.00 97 1011.7
20260510052529 10 148 0.0 0.0 0.00 0.99 0.00 97 1011.7
20260510051549 10 148 0.0 0.0 0.00 0.99 0.00 97 1011.9
20260510050539 10 193 0.0 0.0 0.00 0.99 0.00 97 1011.9
20260510045516 10 201 0.0 0.0 0.00 0.99 0.00 97 1011.8
20260510044530 10 201 0.0 0.0 0.00 0.99 0.00 97 1011.8
20260510043517 10 212 0.0 0.0 0.00 0.99 0.00 97 1011.9
20260510042450 10 212 0.0 0.0 0.00 0.99 0.00 97 1011.9
20260510041436 10 131 0.0 0.0 0.00 0.99 0.00 97 1011.6
20260510040458 10 137 0.0 0.0 0.00 0.99 0.00 97 1011.6
20260510035445 10 137 0.0 0.0 0.00 0.99 1.02 97 1011.6
20260510034509 10 134 0.0 0.0 0.00 0.99 1.02 97 1011.3
20260510033452 10 134 0.0 0.0 0.00 0.99 1.02 97 1011.5
20260510032500 10 134 0.0 0.0 0.00 0.99 1.02 97 1011.6
20260510031507 10 134 0.0 0.0 0.00 0.99 1.02 97 1011.7
20260510025344 10 134 0.0 0.0 0.00 0.99 1.02 97 1011.7
20260510024341 11 132 0.0 0.0 0.00 0.99 1.02 97 1011.7
20260510023308 10 132 0.0 0.0 0.00 0.99 1.02 97 1011.8
20260510021230 10 132 0.0 0.0 0.00 0.99 1.02 97 1011.7
20260510015058 10 132 0.0 0.0 0.00 0.99 1.02 97 1011.6
20260510014121 10 132 0.0 0.0 0.00 0.99 1.02 97 1011.4
20260510013143 10 132 0.0 0.0 0.00 0.99 1.02 97 1011.5
20260510012133 10 132 0.0 0.0 0.00 0.99 1.02 96 1011.4
20260510011158 10 132 0.0 0.0 0.00 0.99 1.02 96 1011.4
20260510005024 10 132 0.0 0.0 0.00 0.99 1.02 96 1011.0
20260510002915 11 132 0.0 0.0 0.00 0.99 1.02 96 1010.9
20260510001940 11 132 0.0 0.0 0.00 0.99 1.02 96 1010.8
20260509234813 11 131 0.0 0.0 0.00 0.99 1.02 96 1010.7
20260509233833 11 131 0.0 0.0 0.00 0.99 1.02 96 1010.8
20260509232823 11 136 0.0 0.0 0.00 0.99 1.02 96 1010.9
20260509231832 11 126 0.0 0.0 0.00 0.99 1.02 96 1010.8
20260509230850 11 130 0.0 0.0 0.00 0.99 1.02 96 1010.8